Time,TemperatureF,DewpointF,PressureIn,WindDirection,WindDirectionDegrees,WindSpeedMPH,WindSpeedGustMPH,Humidity,HourlyPrecipIn,Conditions,Clouds,dailyrainin,SoftwareType,DateUTC
2013-09-11 00:00:00,75.4,68.0,0.00,West,261,0.0,4.0,78,0.00,,,0.00,Weather View 32 v70,2013-09-11 04:00:00,
2013-09-11 00:15:00,75.2,67.8,0.00,SW,216,0.0,4.0,78,0.00,,,0.00,Weather View 32 v70,2013-09-11 04:15:00,
2013-09-11 00:30:00,75.2,67.8,0.00,SSW,207,0.0,4.0,78,0.00,,,0.00,Weather View 32 v70,2013-09-11 04:30:00,
2013-09-11 00:45:00,75.2,67.5,0.00,WSW,248,0.0,4.0,77,0.00,,,0.00,Weather View 32 v70,2013-09-11 04:45:00,
2013-09-11 01:00:00,75.2,67.5,0.00,SSW,202,0.0,4.0,77,0.00,,,0.00,Weather View 32 v70,2013-09-11 05:00:00,
2013-09-11 01:15:00,74.8,67.9,0.00,SSW,201,0.0,4.0,79,0.00,,,0.00,Weather View 32 v70,2013-09-11 05:15:00,
2013-09-11 01:30:00,74.7,67.7,0.00,SSW,202,0.0,4.0,79,0.00,,,0.00,Weather View 32 v70,2013-09-11 05:30:00,
2013-09-11 01:45:00,74.5,67.9,0.00,SSE,152,0.0,4.0,80,0.00,,,0.00,Weather View 32 v70,2013-09-11 05:45:00,
2013-09-11 02:00:00,74.5,67.9,0.00,WSW,255,0.0,4.0,80,0.00,,,0.00,Weather View 32 v70,2013-09-11 06:00:00,
2013-09-11 02:15:00,74.3,67.7,0.00,WSW,256,0.0,4.0,80,0.00,,,0.00,Weather View 32 v70,2013-09-11 06:15:00,
2013-09-11 02:30:00,74.3,68.1,0.00,SSW,192,0.0,4.0,81,0.00,,,0.00,Weather View 32 v70,2013-09-11 06:30:00,
2013-09-11 02:45:00,74.3,68.1,0.00,SSW,203,0.0,4.0,81,0.00,,,0.00,Weather View 32 v70,2013-09-11 06:45:00,
2013-09-11 03:00:00,74.1,67.9,0.00,SSW,203,0.0,2.0,81,0.00,,,0.00,Weather View 32 v70,2013-09-11 07:00:00,
2013-09-11 03:15:00,74.1,68.2,0.00,SSW,203,0.0,2.0,82,0.00,,,0.00,Weather View 32 v70,2013-09-11 07:15:00,
2013-09-11 03:30:00,74.1,68.2,0.00,South,181,0.0,0.0,82,0.00,,,0.00,Weather View 32 v70,2013-09-11 07:30:00,
2013-09-11 03:45:00,73.9,68.1,0.00,South,180,0.0,0.0,82,0.00,,,0.00,Weather View 32 v70,2013-09-11 07:45:00,
2013-09-11 04:00:00,73.6,68.1,0.00,South,180,0.0,0.0,83,0.00,,,0.00,Weather View 32 v70,2013-09-11 08:00:00,
2013-09-11 04:15:00,73.4,68.6,0.00,South,180,0.0,0.0,85,0.00,,,0.00,Weather View 32 v70,2013-09-11 08:15:00,
2013-09-11 04:30:00,73.2,68.8,0.00,South,180,0.0,0.0,86,0.00,,,0.00,Weather View 32 v70,2013-09-11 08:30:00,
2013-09-11 04:33:00,73.2,68.8,0.00,South,180,0.0,0.0,86,0.00,,,0.00,Weather View 32 v70,2013-09-11 08:33:00,
2013-09-11 04:45:00,72.9,68.4,0.00,South,181,0.0,0.0,86,0.00,,,0.00,Weather View 32 v70,2013-09-11 08:45:00,
2013-09-11 05:00:00,72.5,68.1,0.00,South,180,0.0,0.0,86,0.00,,,0.00,Weather View 32 v70,2013-09-11 09:00:00,
2013-09-11 05:15:00,72.1,67.7,0.00,South,181,0.0,0.0,86,0.00,,,0.00,Weather View 32 v70,2013-09-11 09:15:00,
2013-09-11 05:30:00,72.0,68.5,0.00,South,181,0.0,0.0,89,0.00,,,0.00,Weather View 32 v70,2013-09-11 09:30:00,
2013-09-11 05:45:00,71.8,68.7,0.00,South,181,0.0,0.0,90,0.00,,,0.00,Weather View 32 v70,2013-09-11 09:45:00,
2013-09-11 06:00:00,71.8,69.0,0.00,South,180,0.0,0.0,91,0.00,,,0.00,Weather View 32 v70,2013-09-11 10:00:00,
2013-09-11 06:15:00,71.6,68.8,0.00,South,181,0.0,0.0,91,0.00,,,0.00,Weather View 32 v70,2013-09-11 10:15:00,
2013-09-11 06:30:00,71.6,68.8,0.00,South,180,0.0,0.0,91,0.00,,,0.00,Weather View 32 v70,2013-09-11 10:30:00,
2013-09-11 06:45:00,71.4,69.0,0.00,South,180,0.0,0.0,92,0.00,,,0.00,Weather View 32 v70,2013-09-11 10:45:00,
2013-09-11 07:00:00,71.4,69.0,0.00,South,180,0.0,0.0,92,0.00,,,0.00,Weather View 32 v70,2013-09-11 11:00:00,
2013-09-11 07:15:00,71.6,69.5,0.00,South,181,0.0,0.0,93,0.00,,,0.00,Weather View 32 v70,2013-09-11 11:15:00,
2013-09-11 07:30:00,72.0,70.1,0.00,SSW,212,0.0,0.0,94,0.00,,,0.00,Weather View 32 v70,2013-09-11 11:30:00,
2013-09-11 07:45:00,72.3,70.5,0.00,West,264,0.0,3.0,94,0.00,,,0.00,Weather View 32 v70,2013-09-11 11:45:00,
2013-09-11 08:00:00,72.9,70.7,0.00,SW,214,0.0,3.0,93,0.00,,,0.00,Weather View 32 v70,2013-09-11 12:00:00,
2013-09-11 08:15:00,73.2,70.7,0.00,West,266,0.0,3.0,92,0.00,,,0.00,Weather View 32 v70,2013-09-11 12:15:00,
2013-09-11 08:30:00,73.9,70.1,0.00,West,266,0.0,3.0,88,0.00,,,0.00,Weather View 32 v70,2013-09-11 12:30:00,
2013-09-11 08:35:00,73.9,70.1,0.00,West,266,0.0,3.0,88,0.00,,,0.00,Weather View 32 v70,2013-09-11 12:35:00,
2013-09-11 08:45:00,75.0,70.2,0.00,WSW,253,0.0,3.0,85,0.00,,,0.00,Weather View 32 v70,2013-09-11 12:45:00,
2013-09-11 09:00:00,76.6,68.5,0.00,West,276,0.0,4.0,76,0.00,,,0.00,Weather View 32 v70,2013-09-11 13:00:00,
2013-09-11 09:15:00,78.3,67.2,0.00,West,276,0.0,4.0,69,0.00,,,0.00,Weather View 32 v70,2013-09-11 13:15:00,
2013-09-11 09:30:00,79.5,66.7,0.00,SSE,164,0.0,4.0,65,0.00,,,0.00,Weather View 32 v70,2013-09-11 13:30:00,
2013-09-11 09:35:00,79.5,66.7,0.00,SSE,164,0.0,4.0,65,0.00,,,0.00,Weather View 32 v70,2013-09-11 13:35:00,
2013-09-11 09:45:00,80.6,65.9,0.00,West,271,0.0,4.0,61,0.00,,,0.00,Weather View 32 v70,2013-09-11 13:45:00,
2013-09-11 10:00:00,81.7,66.4,0.00,WSW,242,3.0,4.0,60,0.00,,,0.00,Weather View 32 v70,2013-09-11 14:00:00,
2013-09-11 10:15:00,82.8,65.4,0.00,WSW,239,3.0,4.0,56,0.00,,,0.00,Weather View 32 v70,2013-09-11 14:15:00,
2013-09-11 10:30:00,83.8,65.4,0.00,WNW,293,0.0,5.0,54,0.00,,,0.00,Weather View 32 v70,2013-09-11 14:30:00,
2013-09-11 10:36:00,83.8,65.4,0.00,WNW,293,0.0,5.0,54,0.00,,,0.00,Weather View 32 v70,2013-09-11 14:36:00,
2013-09-11 10:45:00,84.7,66.2,0.00,WSW,245,0.0,5.0,54,0.00,,,0.00,Weather View 32 v70,2013-09-11 14:45:00,
2013-09-11 11:00:00,86.2,65.9,0.00,SW,225,0.0,5.0,51,0.00,,,0.00,Weather View 32 v70,2013-09-11 15:00:00,
2013-09-11 11:15:00,87.6,66.6,0.00,ESE,103,0.0,5.0,50,0.00,,,0.00,Weather View 32 v70,2013-09-11 15:15:00,
2013-09-11 11:30:00,88.2,63.4,0.00,South,189,0.0,4.0,44,0.00,,,0.00,Weather View 32 v70,2013-09-11 15:30:00,
2013-09-11 11:36:00,88.2,63.4,0.00,South,189,0.0,4.0,44,0.00,,,0.00,Weather View 32 v70,2013-09-11 15:36:00,
2013-09-11 11:45:00,88.9,64.1,0.00,SSW,207,0.0,4.0,44,0.00,,,0.00,Weather View 32 v70,2013-09-11 15:45:00,
2013-09-11 12:00:00,89.6,64.0,0.00,SE,143,2.0,4.0,43,0.00,,,0.00,Weather View 32 v70,2013-09-11 16:00:00,
2013-09-11 12:15:00,90.7,62.9,0.00,SSW,204,3.0,5.0,40,0.00,,,0.00,Weather View 32 v70,2013-09-11 16:15:00,
2013-09-11 12:30:00,91.6,63.0,0.00,SE,145,0.0,5.0,39,0.00,,,0.00,Weather View 32 v70,2013-09-11 16:30:00,
2013-09-11 12:37:00,91.6,63.0,0.00,SE,145,0.0,5.0,39,0.00,,,0.00,Weather View 32 v70,2013-09-11 16:37:00,
2013-09-11 12:45:00,92.3,62.9,0.00,SSE,148,3.0,6.0,38,0.00,,,0.00,Weather View 32 v70,2013-09-11 16:45:00,
2013-09-11 13:00:00,91.9,62.6,0.00,SSW,196,0.0,6.0,38,0.00,,,0.00,Weather View 32 v70,2013-09-11 17:00:00,
2013-09-11 13:15:00,92.1,62.0,0.00,West,262,3.0,6.0,37,0.00,,,0.00,Weather View 32 v70,2013-09-11 17:15:00,
2013-09-11 13:30:00,92.3,62.9,0.00,SSE,155,3.0,6.0,38,0.00,,,0.00,Weather View 32 v70,2013-09-11 17:30:00,
2013-09-11 13:38:00,92.3,62.9,0.00,SSE,155,3.0,6.0,38,0.00,,,0.00,Weather View 32 v70,2013-09-11 17:38:00,
2013-09-11 13:45:00,92.3,61.4,0.00,SE,142,4.0,6.0,36,0.00,,,0.00,Weather View 32 v70,2013-09-11 17:45:00,
2013-09-11 14:00:00,92.1,62.0,0.00,West,261,4.0,7.0,37,0.00,,,0.00,Weather View 32 v70,2013-09-11 18:00:00,
2013-09-11 14:15:00,92.5,62.3,0.00,SSW,210,4.0,7.0,37,0.00,,,0.00,Weather View 32 v70,2013-09-11 18:15:00,
2013-09-11 14:30:00,93.0,61.2,0.00,SW,221,4.0,8.0,35,0.00,,,0.00,Weather View 32 v70,2013-09-11 18:30:00,
2013-09-11 14:38:00,93.0,61.2,0.00,SW,221,4.0,8.0,35,0.00,,,0.00,Weather View 32 v70,2013-09-11 18:38:00,
2013-09-11 14:45:00,93.0,62.8,0.00,WSW,252,4.0,8.0,37,0.00,,,0.00,Weather View 32 v70,2013-09-11 18:45:00,
2013-09-11 15:00:00,92.8,61.0,0.00,SE,130,3.0,9.0,35,0.00,,,0.00,Weather View 32 v70,2013-09-11 19:00:00,
2013-09-11 15:15:00,93.0,61.2,0.00,SSW,211,0.0,9.0,35,0.00,,,0.00,Weather View 32 v70,2013-09-11 19:15:00,
2013-09-11 15:39:00,91.8,61.7,0.00,West,277,4.0,9.0,37,0.00,,,0.00,Weather View 32 v70,2013-09-11 19:39:00,
2013-09-11 15:45:00,91.4,62.1,0.00,WNW,300,4.0,9.0,38,0.00,,,0.00,Weather View 32 v70,2013-09-11 19:45:00,
2013-09-11 16:00:00,91.0,61.8,0.00,WSW,237,0.0,6.0,38,0.00,,,0.00,Weather View 32 v70,2013-09-11 20:00:00,
2013-09-11 16:15:00,91.2,62.7,0.00,West,263,4.0,10.0,39,0.00,,,0.00,Weather View 32 v70,2013-09-11 20:15:00,
2013-09-11 16:30:00,91.2,62.0,0.00,SSW,203,5.0,10.0,38,0.00,,,0.00,Weather View 32 v70,2013-09-11 20:30:00,
2013-09-11 16:39:00,91.2,62.0,0.00,SSW,203,5.0,10.0,38,0.00,,,0.00,Weather View 32 v70,2013-09-11 20:39:00,
2013-09-11 16:45:00,91.4,62.1,0.00,South,189,3.0,10.0,38,0.00,,,0.00,Weather View 32 v70,2013-09-11 20:45:00,
2013-09-11 17:00:00,90.9,62.4,0.00,South,187,0.0,10.0,39,0.00,,,0.00,Weather View 32 v70,2013-09-11 21:00:00,
2013-09-11 17:15:00,91.0,62.5,0.00,SSW,207,0.0,8.0,39,0.00,,,0.00,Weather View 32 v70,2013-09-11 21:15:00,
2013-09-11 17:30:00,90.1,61.7,0.00,SSW,209,2.0,8.0,39,0.00,,,0.00,Weather View 32 v70,2013-09-11 21:30:00,
2013-09-11 17:45:00,90.7,62.2,0.00,SW,235,0.0,8.0,39,0.00,,,0.00,Weather View 32 v70,2013-09-11 21:45:00,
2013-09-11 18:00:00,90.5,61.3,0.00,WSW,251,0.0,8.0,38,0.00,,,0.00,Weather View 32 v70,2013-09-11 22:00:00,
2013-09-11 18:15:00,88.9,61.3,0.00,WSW,246,0.0,8.0,40,0.00,,,0.00,Weather View 32 v70,2013-09-11 22:15:00,
2013-09-11 18:30:00,87.1,61.8,0.00,WSW,243,0.0,6.0,43,0.00,,,0.00,Weather View 32 v70,2013-09-11 22:30:00,
2013-09-11 18:45:00,86.4,63.1,0.00,West,270,0.0,6.0,46,0.00,,,0.00,Weather View 32 v70,2013-09-11 22:45:00,
2013-09-11 19:00:00,85.8,63.2,0.00,West,277,0.0,5.0,47,0.00,,,0.00,Weather View 32 v70,2013-09-11 23:00:00,
2013-09-11 19:15:00,85.3,63.3,0.00,West,275,0.0,5.0,48,0.00,,,0.00,Weather View 32 v70,2013-09-11 23:15:00,
2013-09-11 19:30:00,84.7,62.8,0.00,SW,229,2.0,4.0,48,0.00,,,0.00,Weather View 32 v70,2013-09-11 23:30:00,
2013-09-11 19:45:00,84.4,63.1,0.00,SW,230,0.0,4.0,49,0.00,,,0.00,Weather View 32 v70,2013-09-11 23:45:00,
2013-09-11 20:00:00,84.0,63.3,0.00,WSW,250,0.0,4.0,50,0.00,,,0.00,Weather View 32 v70,2013-09-12 00:00:00,
2013-09-11 20:14:00,83.7,64.1,0.00,SW,236,0.0,4.0,52,0.00,,,0.00,Weather View 32 v70,2013-09-12 00:14:00,
2013-09-11 20:30:00,83.3,64.3,0.00,West,265,0.0,4.0,53,0.00,,,0.00,Weather View 32 v70,2013-09-12 00:30:00,
2013-09-11 20:45:00,82.8,64.9,0.00,West,265,0.0,4.0,55,0.00,,,0.00,Weather View 32 v70,2013-09-12 00:45:00,
2013-09-11 21:00:00,82.4,65.1,0.00,North,0,3.0,4.0,56,0.00,,,0.00,Weather View 32 v70,2013-09-12 01:00:00,
2013-09-11 21:15:00,81.7,64.9,0.00,NW,308,3.0,4.0,57,0.00,,,0.00,Weather View 32 v70,2013-09-12 01:15:00,
2013-09-11 21:30:00,81.1,59.5,0.00,NW,304,4.0,4.0,48,0.00,,,0.00,Weather View 32 v70,2013-09-12 01:30:00,
2013-09-11 21:45:00,80.6,59.6,0.00,East,91,0.0,4.0,49,0.00,,,0.00,Weather View 32 v70,2013-09-12 01:45:00,
2013-09-11 22:00:00,79.9,58.4,0.00,NNW,346,3.0,5.0,48,0.00,,,0.00,Weather View 32 v70,2013-09-12 02:00:00,
2013-09-11 22:15:00,79.3,57.3,0.00,West,273,0.0,5.0,47,0.00,,,0.00,Weather View 32 v70,2013-09-12 02:15:00,
2013-09-11 22:30:00,79.0,57.5,0.00,West,273,0.0,5.0,48,0.00,,,0.00,Weather View 32 v70,2013-09-12 02:30:00,
2013-09-11 22:44:00,78.6,58.4,0.00,West,273,0.0,5.0,50,0.00,,,0.00,Weather View 32 v70,2013-09-12 02:44:00,
2013-09-11 23:00:00,77.7,58.1,0.00,West,273,0.0,5.0,51,0.00,,,0.00,Weather View 32 v70,2013-09-12 03:00:00,
2013-09-11 23:15:00,77.2,59.2,0.00,West,273,0.0,0.0,54,0.00,,,0.00,Weather View 32 v70,2013-09-12 03:15:00,
2013-09-11 23:30:00,76.8,59.4,0.00,West,273,0.0,0.0,55,0.00,,,0.00,Weather View 32 v70,2013-09-12 03:30:00,
2013-09-11 23:45:00,76.3,60.8,0.00,West,273,0.0,0.0,59,0.00,,,0.00,Weather View 32 v70,2013-09-12 03:45:00,